Dewpoint
10 9 9 9 10 10 10 10 9 7 3 -3 -6 -6 -6 -6 -6 -5 -4 -3 -2 -2 -3 -3 -3 -2 -3 -3 1 1 2 5 7 5 8 4 4 4 4 4 3 3 5
12 9 8 9 10 10 10 10 9 7 3 -2 -5 -5 -6 -6 -6 -6 -5 -5 -5 -4 -4 -4 -5 -4 -4 -3 0 0 6 9 10 9 10 9 7 6 6 6 5 4 4
12 9 8 9 9 10 10 10 9 7 2 -1 -4 -5 -5 -5 -5 -5 -5 -5 -5 -5 -5 -4 -4 -3 -3 -2 -1 2 7 9 10 11 11 10 10 8 7 6 7 8 6
13 10 8 9 9 10 10 10 9 6 2 0 -2 -4 -4 -5 -5 -4 -5 -5 -5 -4 -3 -3 -3 -3 -3 -2 -1 2 8 11 11 11 10 11 10 8 5 2 1 5 7
13 11 9 9 9 10 10 10 9 5 3 2 -1 -2 -3 -4 -4 -4 -4 -4 -3 -3 -3 -3 -2 -2 -2 -1 0 2 7 11 11 11 11 10 11 10 10 5 1 1 5
12 10 9 9 9 10 10 10 8 5 4 3 1 -1 -2 -3 -3 -3 -3 -3 -2 -3 -2 -2 -3 -2 -2 -1 -0 1 6 11 11 12 12 12 12 11 11 9 1 -2 3
12 9 9 9 9 10 10 9 7 5 5 5 3 1 -0 -2 -2 -2 -2 -2 -2 -2 -2 -2 -2 -2 -2 -2 -1 1 1 6 11 11 11 14 13 12 11 10 5 -1 -1
9 8 8 9 10 10 9 9 6 6 6 6 5 3 2 1 -0 -1 -1 -1 -1 -0 -0 -1 -1 -2 -3 -4 -5 -4 -1 0 11 12 12 12 12 12 12 10 6 2 2
7 7 9 9 9 9 9 8 7 7 7 7 6 5 4 3 2 1 1 1 1 1 2 2 2 2 2 1 0 -3 -6 -3 3 12 11 11 11 12 11 11 10 9 2
8 9 9 8 8 9 8 8 8 8 8 8 8 7 6 5 4 4 3 3 3 3 3 3 4 4 5 5 5 5 4 -0 -5 2 6 10 10 10 11 12 11 9 6
11 11 9 8 8 8 9 9 8 8 8 9 9 9 8 6 6 6 6 5 6 5 5 4 5 5 6 6 7 7 7 7 6 -3 6 10 10 10 11 11 10 10 9
12 14 12 8 8 9 9 9 9 9 9 9 9 9 9 8 8 8 8 8 7 7 5 5 5 6 8 8 7 7 7 7 7 6 6 8 9 9 9 10 9 9 9
11 14 13 9 8 8 9 9 10 10 9 10 10 9 10 9 9 9 9 10 10 8 6 5 8 9 9 9 8 8 8 8 8 9 9 9 9 9 10 10 9 9 9
9 9 8 9 8 8 9 9 10 10 10 10 10 10 10 10 9 9 11 11 9 10 7 10 10 9 8 8 8 8 6 8 8 8 9 9 9 9 9 9 9 9 9
7 7 6 4 4 6 8 9 10 10 11 10 10 10 11 10 10 10 10 11 10 11 11 10 10 10 10 10 10 9 9 8 9 8 8 8 9 9 9 9 9 9 9
8 8 9 7 4 5 5 7 9 10 10 10 11 11 11 11 11 10 11 11 11 11 11 11 11 11 11 11 11 10 10 10 10 10 9 9 9 8 9 9 8 9 9
9 9 10 9 9 8 5 4 5 9 12 12 12 11 12 11 11 11 11 11 11 12 11 11 11 11 11 11 10 9 8 9 10 9 9 9 9 9 8 8 9 9 9
10 10 10 10 10 10 8 5 4 6 11 12 13 13 12 12 12 12 12 12 12 12 11 11 11 11 11 11 6 1 -2 -1 0 6 9 3 8 9 4 5 9 9 9
9 10 10 10 10 10 10 8 4 5 7 12 13 13 12 12 12 12 12 12 12 12 12 12 12 12 11 5 5 -2 -6 -8 -9 -8 -4 0 7 4 7 5 6 6 6
7 6 9 9 9 10 11 11 8 6 7 11 13 13 13 13 12 13 12 12 12 13 13 12 12 12 11 9 7 -1 -9 -9 -10 -12 -13 -7 -1 3 2 2 -0 1 3
2 5 8 9 9 10 11 11 10 6 5 10 11 13 13 13 13 13 12 12 13 13 12 12 11 9 10 10 7 1 -8 -7 -7 -9 -13 -10 -1 3 2 3 1 1 1
0 3 7 8 8 9 10 10 10 9 6 5 7 12 13 14 14 13 13 13 13 13 12 12 11 9 9 8 8 -8 -6 -5 -6 -10 -10 -10 -10 -12 -9 -3 2 1 1
0 3 6 6 7 9 10 11 11 11 9 7 6 11 14 14 14 13 13 13 13 11 12 11 11 9 8 8 -6 -7 -1 -4 -5 -5 -8 -9 -10 -10 -9 -3 2 2 1
-1 2 6 8 8 9 10 11 11 11 10 9 8 7 10 14 13 13 13 13 13 11 12 12 12 11 10 -0 -7 -7 -4 -6 -3 2 -0 -3 -3 -7 -5 -2 -1 -0 0
-1 3 5 7 9 10 11 12 12 12 12 12 12 12 11 11 12 13 13 13 12 12 12 12 11 10 4 -1 -7 -7 -7 -4 -6 -4 -1 -2 0 1 1 1 2 2 1
6 8 9 9 10 11 12 12 12 13 13 13 13 13 13 12 12 12 13 12 12 13 13 12 11 4 2 -6 -7 -7 -5 -4 -7 -5 -1 0 2 2 3 2 0 1 1
Wind_Speed
23 26 26 24 23 22 19 18 17 15 15 15 16 17 16 16 15 15 14 13 13 12 11 10 9 9 9 9 9 9 9 10 10 12 13 11 10 11 11 11 10 11 10
24 27 26 25 23 22 20 18 16 15 14 14 15 15 15 14 14 13 13 12 11 10 10 9 9 9 9 9 9 9 9 9 10 10 12 14 12 11 11 10 9 9 10
22 30 26 25 24 23 21 19 17 15 14 14 14 13 13 12 12 11 11 10 10 9 9 9 9 9 9 8 8 7 7 8 9 9 11 12 13 11 12 11 9 8 8
19 27 28 26 25 24 22 20 18 16 15 13 13 12 12 11 10 10 9 9 8 7 7 7 7 8 8 7 6 7 7 7 7 8 7 8 10 11 13 13 10 8 7
19 27 27 26 25 25 23 21 19 17 15 13 12 12 11 10 10 9 8 7 6 6 5 5 5 6 7 6 5 5 6 5 3 2 5 6 7 10 13 15 13 9 7
23 28 27 27 26 26 24 22 19 17 15 13 12 11 10 9 8 8 7 7 6 5 4 4 3 4 4 5 4 4 5 6 3 1 4 4 6 9 12 14 15 12 9
22 27 27 27 27 26 24 22 20 17 15 13 12 11 10 9 8 8 6 6 5 4 3 3 3 2 2 3 4 4 5 6 5 4 6 5 7 10 11 14 14 13 11
22 27 27 27 27 26 24 22 20 17 15 13 11 10 10 9 8 7 6 4 4 4 3 3 2 1 0 0 1 2 5 6 9 9 8 8 8 11 11 11 14 16 15
25 28 29 29 28 25 22 21 20 18 16 14 12 11 10 9 9 8 7 7 5 4 3 2 2 2 1 1 1 0 2 4 8 11 9 7 8 11 10 12 15 16 17
23 28 29 28 28 27 25 23 21 19 17 15 14 12 11 11 9 9 9 7 6 4 3 3 2 1 1 2 1 2 1 3 6 11 14 11 11 10 14 16 16 17 17
21 22 29 30 29 27 26 25 22 20 19 18 16 14 13 12 11 11 9 7 5 3 2 2 2 2 2 2 2 2 1 1 4 7 10 11 11 14 13 15 19 19 19
25 26 26 30 29 28 27 26 25 23 22 20 18 16 15 14 13 12 10 8 6 3 3 4 4 4 3 2 2 3 1 1 1 5 9 10 13 17 18 17 20 19 21
26 25 25 29 30 29 29 28 27 26 24 23 21 19 17 16 16 15 12 10 7 5 7 6 5 4 3 1 4 4 6 5 5 7 8 10 13 16 19 18 19 22 20
25 24 22 26 30 30 29 29 28 27 26 25 23 21 20 20 19 17 14 10 7 3 6 6 6 6 5 7 4 5 7 8 11 16 16 16 18 20 18 20 20 19 21
24 23 22 22 26 28 30 30 30 30 29 26 24 23 22 22 21 19 16 13 9 8 8 9 8 9 8 9 9 9 11 11 13 13 13 15 19 20 20 19 22 22 21
28 28 26 25 25 26 25 28 30 30 29 28 27 26 24 23 22 21 18 16 15 14 12 11 11 12 13 12 13 15 15 14 16 18 18 20 20 21 22 21 21 22 23
34 33 33 28 26 24 20 23 25 26 26 26 26 25 23 24 23 21 20 20 19 16 17 18 17 17 16 19 18 17 17 19 19 19 21 24 24 21 21 25 25 24 23
41 39 36 33 29 25 22 21 25 26 27 26 26 25 24 24 24 23 24 23 22 20 21 21 21 21 24 22 17 12 12 15 16 20 24 25 23 23 28 25 27 26 25
44 43 41 36 31 28 24 22 25 26 28 28 27 27 27 26 26 25 25 25 27 25 26 25 25 25 25 20 15 13 14 13 13 13 13 13 21 21 22 23 22 23 23
41 38 41 38 35 32 29 26 26 28 30 30 32 31 30 27 27 28 28 29 31 30 29 31 30 30 26 19 16 16 16 15 14 13 12 13 13 11 10 11 17 18 21
36 40 40 41 38 36 35 32 32 32 34 34 34 34 33 32 31 32 33 32 32 32 31 31 29 27 24 19 18 18 17 18 12 7 12 13 10 11 16 20 18 18 19
37 40 41 41 40 40 38 35 33 31 36 37 35 35 34 34 34 36 37 36 35 35 34 33 30 27 23 20 18 20 14 14 9 15 15 13 13 15 15 17 15 17 20
36 39 45 43 41 43 41 39 36 33 33 37 38 39 36 35 34 36 37 37 37 36 39 37 34 28 24 20 21 18 10 7 12 11 17 12 16 18 16 16 19 20 21
37 40 46 47 45 44 43 42 39 35 34 33 34 35 40 40 38 35 37 39 39 39 42 40 36 28 21 23 21 20 18 16 9 8 9 16 21 20 19 18 18 20 22
32 40 44 44 44 44 43 42 38 36 35 34 31 32 36 38 37 40 42 41 40 41 44 42 34 25 25 28 18 18 17 16 16 21 28 28 27 27 23 23 20 21 20
20 23 30 32 34 36 38 37 38 39 38 37 36 34 34 35 34 31 40 40 42 44 46 44 35 20 22 21 18 19 19 17 19 21 28 34 34 29 26 27 24 20 22
Wind_Direction
180 179 170 168 167 163 161 157 144 134 125 124 126 126 125 123 124 126 126 124 119 114 111 108 103 98 96 97 96 93 90 87 86 86 66 62 51 48 42 46 47 54 57
173 182 174 172 170 167 167 162 150 141 133 131 128 127 126 126 127 126 123 119 117 118 117 114 109 108 105 103 101 92 95 87 80 77 61 61 39 37 40 36 36 44 48
169 180 180 175 175 173 169 165 158 151 144 138 131 129 128 127 125 125 124 122 121 121 115 110 110 107 106 107 103 99 96 84 71 63 60 50 30 25 23 19 20 29 40
169 186 182 177 179 177 171 171 165 160 152 143 139 136 136 134 133 129 124 123 123 117 114 113 110 112 112 114 116 116 109 89 63 56 51 41 22 9 7 5 2 8 13
193 188 181 181 180 178 174 175 171 166 158 151 147 145 143 141 135 132 132 131 132 125 116 108 108 109 110 118 131 133 131 124 110 44 42 36 4 354 349 354 353 349 355
181 182 180 183 182 179 178 178 174 171 166 160 153 150 146 143 141 144 146 145 137 126 122 116 112 111 113 123 148 168 159 152 147 9 302 342 336 332 339 345 347 349 343
185 178 182 184 181 181 181 181 179 175 172 167 162 155 153 151 156 158 163 159 141 129 131 136 134 126 131 143 166 186 199 195 199 259 266 305 319 317 330 338 336 336 339
185 181 185 183 184 183 183 183 182 181 178 176 171 167 166 166 170 171 178 168 167 155 167 152 142 145 123 212 157 208 225 220 215 252 267 275 282 303 316 335 339 334 332
184 186 187 186 186 186 187 186 187 187 185 184 183 184 180 181 187 187 191 198 195 191 198 198 186 196 208 314 4 282 268 252 234 238 267 294 294 297 303 316 323 326 321
183 191 190 190 190 189 189 191 193 193 193 195 195 197 193 197 198 204 209 207 209 219 224 224 222 262 286 293 285 245 211 253 240 237 260 272 296 303 293 305 312 321 314
186 190 198 197 195 194 194 195 197 200 202 203 203 206 207 208 210 215 218 215 224 243 247 249 247 247 261 270 240 170 188 324 248 242 245 258 293 300 296 303 311 318 313
194 196 202 203 201 199 200 202 203 205 209 211 211 214 215 216 218 223 223 224 225 234 231 228 218 207 235 240 264 272 307 22 185 239 254 274 301 301 297 298 301 310 315
197 200 204 207 207 207 208 208 210 211 215 216 217 219 219 220 222 226 224 222 228 246 227 216 192 212 229 284 319 298 303 305 288 259 260 277 292 286 289 295 295 298 304
208 211 207 211 210 212 214 216 217 217 218 220 221 222 223 225 226 228 221 216 204 211 200 201 200 220 227 240 278 313 323 328 325 304 300 300 300 293 291 290 296 293 300
209 212 214 213 215 216 217 219 221 222 223 225 224 226 228 229 232 229 225 219 209 216 219 211 223 230 229 251 270 286 288 279 267 268 271 284 281 281 287 289 296 297 296
210 212 212 214 211 215 218 221 224 226 226 226 228 229 232 233 234 232 227 220 217 222 228 224 233 247 252 263 270 274 275 281 283 287 285 296 288 286 288 287 287 284 296
220 217 215 216 212 215 222 224 222 218 220 223 226 226 225 229 229 232 231 229 226 226 226 229 234 239 253 265 268 272 273 276 276 274 276 277 278 276 280 288 285 285 284
221 219 218 216 216 215 221 230 231 227 223 223 223 223 224 228 229 231 231 233 233 233 231 237 234 241 249 260 260 269 275 280 276 272 270 278 274 275 284 281 284 283 282
224 223 217 219 219 220 221 226 235 233 230 227 226 227 227 229 230 228 231 231 234 235 239 244 243 247 251 250 262 282 292 299 301 297 300 288 269 282 282 286 286 283 282
224 226 220 216 220 219 219 222 229 232 234 230 231 231 230 231 230 229 236 236 234 235 240 243 242 243 247 247 262 282 294 299 308 316 313 309 306 301 297 302 302 289 280
224 222 219 215 219 218 218 218 222 231 232 228 227 233 231 232 231 230 234 237 237 237 241 236 235 234 241 250 267 284 287 294 305 308 322 318 303 285 290 297 291 292 295
224 226 219 222 226 225 223 226 230 238 233 236 234 232 234 236 236 234 237 237 240 242 236 230 229 231 239 250 267 279 287 294 298 308 310 312 309 310 304 295 284 287 294
223 225 220 225 231 227 226 226 229 233 235 235 236 234 234 235 237 238 239 240 239 242 234 230 227 227 235 247 257 260 259 255 277 293 305 312 321 318 308 296 286 293 290
223 225 224 223 226 228 228 229 231 238 241 250 249 247 240 237 236 236 238 239 242 239 234 231 224 226 232 256 247 260 265 281 307 300 305 305 303 308 308 300 289 289 291
223 222 224 227 226 229 231 231 235 242 250 251 251 253 250 248 244 243 243 244 242 237 237 235 210 213 251 242 254 263 269 277 292 296 299 300 302 304 302 298 292 289 287
190 203 221 231 236 235 238 242 244 246 250 252 254 254 253 251 248 256 246 240 236 238 238 235 212 242 237 243 258 265 268 278 292 297 295 297 299 302 303 301 302 298 293
Height
1535 1540 1540 1543 1544 1547 1549 1551 1550 1551 1551 1552 1551 1552 1553 1553 1554 1555 1555 1556 1556 1557 1557 1558 1559 1559 1559 1559 1559 1559 1559 1559 1559 1559 1559 1559 1559 1559 1558 1558 1557 1555 1554
1530 1539 1540 1542 1544 1546 1548 1551 1551 1552 1552 1552 1552 1553 1553 1554 1554 1555 1556 1557 1557 1558 1558 1559 1560 1560 1560 1560 1561 1560 1560 1560 1560 1560 1560 1561 1562 1561 1560 1560 1559 1558 1557
1528 1536 1540 1541 1544 1545 1548 1551 1551 1552 1552 1553 1552 1553 1554 1554 1555 1556 1557 1557 1558 1558 1559 1560 1561 1562 1562 1562 1562 1562 1562 1562 1562 1562 1563 1562 1562 1563 1562 1562 1561 1561 1559
1528 1534 1537 1540 1543 1546 1548 1550 1551 1552 1552 1553 1553 1553 1554 1555 1556 1557 1558 1558 1558 1559 1560 1560 1561 1562 1563 1563 1563 1563 1563 1564 1563 1564 1564 1563 1564 1563 1562 1561 1560 1560 1559
1528 1532 1536 1540 1543 1546 1548 1550 1552 1552 1552 1553 1553 1554 1555 1555 1556 1558 1558 1558 1559 1560 1561 1562 1562 1563 1563 1564 1564 1565 1565 1564 1564 1563 1564 1564 1565 1565 1564 1563 1561 1559 1558
1528 1532 1536 1540 1543 1546 1548 1551 1552 1553 1553 1553 1554 1554 1555 1556 1557 1558 1558 1558 1559 1561 1562 1562 1563 1563 1563 1564 1564 1565 1566 1566 1565 1565 1565 1565 1566 1566 1565 1563 1562 1561 1560
1530 1533 1537 1540 1543 1546 1548 1551 1552 1553 1553 1554 1554 1555 1556 1556 1557 1558 1558 1559 1560 1561 1562 1562 1562 1563 1563 1564 1564 1564 1565 1565 1565 1564 1563 1564 1565 1565 1564 1563 1562 1560 1559
1530 1534 1538 1541 1544 1546 1547 1550 1552 1552 1553 1554 1555 1555 1556 1556 1557 1557 1558 1559 1560 1560 1561 1561 1561 1561 1562 1563 1564 1564 1564 1564 1564 1563 1562 1564 1564 1565 1565 1563 1562 1561 1560
1532 1535 1537 1540 1543 1546 1548 1550 1551 1551 1552 1553 1554 1555 1556 1556 1557 1557 1558 1558 1559 1559 1560 1560 1561 1561 1562 1562 1563 1563 1563 1564 1564 1564 1563 1563 1563 1563 1562 1562 1561 1561 1560
1531 1534 1536 1539 1542 1543 1546 1548 1549 1550 1551 1552 1553 1554 1555 1555 1556 1556 1557 1558 1559 1559 1559 1560 1561 1561 1561 1562 1562 1561 1560 1560 1561 1561 1561 1562 1561 1560 1560 1561 1559 1558 1557
1531 1533 1536 1537 1539 1542 1544 1545 1546 1548 1549 1550 1551 1552 1553 1554 1555 1555 1557 1558 1558 1559 1559 1560 1560 1561 1561 1561 1560 1560 1559 1559 1559 1559 1559 1559 1560 1558 1559 1559 1558 1558 1556
1527 1530 1533 1536 1538 1540 1541 1542 1543 1545 1546 1547 1549 1550 1552 1553 1554 1554 1555 1556 1557 1557 1558 1558 1559 1559 1559 1560 1560 1560 1559 1558 1557 1557 1557 1558 1557 1558 1557 1556 1555 1555 1556
1524 1527 1529 1532 1534 1536 1538 1539 1540 1541 1542 1544 1546 1547 1549 1550 1551 1552 1553 1553 1554 1554 1555 1556 1558 1558 1558 1559 1559 1558 1558 1557 1557 1557 1556 1556 1557 1555 1554 1553 1553 1551 1551
1521 1523 1525 1527 1529 1530 1533 1534 1536 1538 1540 1541 1543 1545 1546 1547 1548 1549 1550 1551 1552 1553 1554 1555 1555 1556 1556 1555 1555 1555 1555 1556 1557 1556 1556 1556 1556 1554 1553 1551 1550 1549 1549
1514 1517 1519 1521 1523 1525 1528 1530 1532 1533 1535 1537 1539 1541 1542 1543 1544 1546 1548 1549 1550 1552 1553 1552 1553 1553 1553 1554 1554 1552 1553 1553 1552 1552 1552 1553 1553 1552 1551 1551 1550 1547 1546
1507 1509 1512 1515 1518 1520 1522 1524 1526 1529 1531 1532 1534 1536 1538 1540 1541 1543 1545 1546 1548 1549 1550 1551 1552 1552 1552 1551 1550 1551 1550 1550 1550 1550 1550 1549 1548 1550 1549 1547 1545 1543 1542
1499 1503 1506 1509 1513 1515 1517 1520 1521 1524 1526 1528 1529 1532 1535 1537 1538 1540 1541 1542 1544 1546 1547 1548 1548 1549 1548 1549 1548 1548 1548 1547 1546 1545 1545 1543 1542 1542 1542 1544 1543 1541 1541
1493 1497 1501 1504 1507 1510 1512 1515 1516 1518 1520 1523 1525 1528 1531 1533 1534 1536 1536 1538 1541 1542 1544 1544 1545 1545 1544 1545 1546 1545 1544 1543 1542 1541 1540 1540 1539 1539 1538 1536 1538 1538 1537
1485 1491 1497 1500 1502 1504 1507 1509 1511 1513 1515 1518 1521 1523 1525 1527 1529 1531 1533 1535 1536 1537 1538 1540 1540 1541 1542 1542 1542 1541 1539 1538 1537 1536 1535 1533 1533 1532 1532 1532 1531 1531 1532
1482 1485 1489 1493 1496 1499 1503 1505 1507 1510 1511 1512 1515 1517 1520 1522 1525 1527 1528 1530 1531 1532 1534 1536 1536 1536 1537 1538 1538 1537 1535 1532 1531 1529 1529 1529 1529 1527 1527 1527 1526 1524 1523
1478 1479 1484 1487 1489 1492 1495 1497 1500 1501 1504 1506 1508 1511 1514 1517 1519 1521 1522 1524 1526 1527 1528 1530 1531 1531 1534 1536 1535 1532 1530 1529 1527 1526 1526 1525 1525 1525 1522 1521 1519 1518 1517
1471 1474 1477 1481 1483 1485 1488 1492 1494 1496 1497 1500 1501 1505 1508 1511 1514 1516 1517 1519 1521 1521 1522 1523 1524 1525 1528 1530 1531 1530 1527 1524 1522 1521 1521 1520 1520 1519 1517 1516 1515 1514 1512
1465 1468 1471 1474 1477 1480 1484 1487 1489 1492 1494 1496 1497 1499 1502 1505 1507 1509 1511 1513 1514 1514 1513 1512 1513 1515 1518 1521 1522 1526 1524 1518 1514 1514 1515 1514 1515 1515 1514 1512 1511 1508 1507
1460 1463 1466 1469 1473 1476 1480 1481 1483 1485 1486 1488 1491 1493 1494 1498 1500 1502 1504 1506 1507 1507 1504 1504 1506 1512 1513 1518 1518 1519 1519 1516 1513 1511 1511 1511 1510 1508 1507 1507 1506 1505 1504
1456 1458 1461 1465 1469 1473 1476 1478 1481 1482 1483 1484 1486 1487 1488 1490 1493 1495 1496 1497 1499 1498 1495 1498 1476 1501 1503 1512 1512 1514 1515 1513 1511 1510 1502 1504 1505 1504 1503 1502 1501 1501 1500
1455 1458 1462 1465 1468 1472 1474 1476 1476 1477 1479 1480 1481 1482 1483 1484 1487 1489 1489 1490 1490 1489 1489 1489 1481 1490 1498 1506 1507 1510 1511 1510 1508 1508 1503 1500 1498 1496 1496 1495 1495 1495 1495